#timestamp,LO_Frequency,Hit,StdDev 
1594573215.1,286047001.9,N
1594573216.0,286047001.9,N
1594573235.8,286047002.6,N
1594573255.7,286046999.8,N
1594573275.5,286047000.1,N
1594573295.3,286047002.7,N
1594573315.2,286047002.5,N
1594573335.0,286047002.4,N
1594573335.9,286047002.4,N
1594573355.8,286047002.1,N
1594573375.6,286047002.8,N
1594573395.4,286047000.2,N
1594573415.3,286047002.3,N
1594573435.1,286047001.2,N
1594573455.8,286047000.0,N
1594573475.7,286047002.6,N
1594573495.5,286047001.4,N
1594573515.4,286046999.8,N
1594573535.2,286047002.4,N
1594573555.0,286047002.2,N
1594573555.9,286047002.2,N
1594573575.8,286047002.2,N
1594573595.6,286047001.3,N
1594573615.5,286047004.3,Y
1594573635.3,286047002.7,P
1594573655.1,286046999.7,N
1594573675.9,286047002.5,N
1594573695.7,286047001.6,N
1594573715.6,286047002.5,N
1594573735.4,286047002.4,N
1594573755.2,286047002.7,N
1594573775.1,286047002.3,N
1594573776.0,286047002.3,N
1594573795.8,286047002.8,Y
1594573815.6,286046998.5,P
1594573835.5,286046998.6,N
1594573855.3,286046998.2,N
1594573875.2,286046998.4,N
1594573895.9,286047001.1,N
1594573915.7,286046998.2,N
1594573935.6,286047000.7,N
1594573955.4,286047000.9,N
1594573975.3,286047001.0,N
1594573995.1,286046999.9,N
1594573996.0,286046999.9,N
1594574015.8,286046999.9,N
1594574035.7,286046998.1,N
1594574055.5,286047002.8,N
1594574075.3,286046999.9,N
1594574095.2,286047000.2,N
1594574115.0,286047000.9,N
1594574115.9,286047000.9,N
1594574135.8,286046998.1,N
1594574155.6,286046999.0,N
1594574175.4,286046998.9,N
1594574195.3,286046998.2,N
1594574215.1,286046998.4,N
1594574235.9,286047002.8,N
1594574255.7,286046998.5,N
1594574275.5,286046998.5,N
1594574295.4,286047000.6,N
1594574315.2,286047000.9,N
1594574335.0,286046999.8,N
1594574335.9,286046999.8,N
1594574355.8,286047000.2,N
1594574375.6,286047000.0,N
1594574395.5,286046998.2,N
1594574415.3,286047001.2,N
1594574435.1,286047000.9,N
1594574455.9,286047000.8,N
1594574475.7,286046998.5,N
1594574495.5,286046998.1,N
1594574515.4,286046998.1,N
1594574535.2,286047000.1,N
1594574555.1,286047002.4,N
1594574556.0,286047002.4,N
1594574575.8,286047002.6,N
1594574595.6,286047002.0,N
1594574615.5,286047000.0,N
1594574635.3,286047000.4,N
1594574655.2,286047000.2,N
1594574675.9,286046998.5,N
1594574695.7,286046998.5,N
1594574715.6,286046998.1,N
1594574735.4,286047000.0,N
1594574755.2,286047000.4,N
1594574775.1,286047000.9,N
1594574776.0,286047000.9,N
1594574795.8,286046998.2,N
1594574815.7,286047000.7,N
1594574835.5,286047002.6,N
1594574855.3,286047002.1,N
1594574875.2,286047001.9,N
1594574895.0,286047001.8,N
1594574895.9,286047001.8,N
1594574915.8,286047001.7,N
1594574935.6,286047002.0,N
1594574955.4,286046999.8,N
1594574975.3,286047002.3,N
1594574995.1,286047002.6,N
1594575015.8,286047000.4,N
1594575035.7,286047000.9,N
1594575055.5,286047000.7,N
1594575075.4,286047000.4,N
1594575095.2,286046999.9,N
1594575115.0,286047000.1,N
1594575115.9,286047000.1,N
1594575135.8,286047000.6,N
1594575155.6,286047000.2,N
1594575175.5,286047002.8,N
1594575195.3,286047000.4,N
1594575215.1,286046999.8,N
1594575235.9,286047002.3,N
1594575255.7,286046999.7,N
1594575275.6,286047001.6,N
1594575295.4,286046999.7,N
1594575315.3,286047000.9,N
1594575335.1,286047000.7,N
1594575336.0,286047000.7,N
1594575355.8,286047000.4,N
1594575375.7,286047001.0,N
1594575395.5,286047000.6,N
1594575415.4,286047000.0,N
1594575435.2,286047000.0,N
1594575455.0,286046999.9,N
1594575455.9,286046999.9,N
1594575475.8,286047000.6,N
1594575495.6,286047002.3,N
1594575515.5,286047002.2,N
1594575535.3,286047002.3,N
1594575555.1,286047002.7,Y
1594575575.9,286046999.9,P
1594575595.7,286047000.1,N
1594575615.6,286047004.3,P
1594575635.4,286047002.3,N
1594575655.2,286047000.3,N
1594575675.1,286047000.4,N
1594575676.0,286047000.4,N
1594575695.8,286046998.7,N
1594575715.7,286046998.7,N
1594575735.5,286046998.1,N
1594575755.3,286047000.8,N
1594575775.2,286047000.1,N
1594575795.0,286047000.4,N
1594575795.9,286047000.4,N
1594575815.8,286047002.2,N
1594575835.6,286047000.2,N
1594575855.4,286047000.5,N
1594575875.3,286047001.7,N
1594575895.1,286047001.5,N
1594575915.8,286047003.0,N
1594575935.7,286047002.9,N
1594575955.5,286047001.8,N
1594575975.4,286047001.7,N
1594575995.2,286047003.5,N
1594576015.0,286047005.7,Y
1594576015.9,286047005.7,P
1594576035.8,286047002.3,N
1594576055.6,286047003.1,N
1594576075.5,286047005.7,Y
1594576095.3,286047002.1,P
1594576115.1,286046999.9,N
1594576135.9,286047002.8,N
1594576155.7,286046999.1,N
1594576175.5,286046995.8,N
1594576195.4,286046996.4,N
1594576215.2,286046996.1,N
1594576235.1,286046995.3,N
1594576236.0,286046995.3,N
1594576255.8,286046995.2,N
1594576275.6,286046996.2,N
1594576295.5,286046995.3,N
1594576315.3,286046994.9,N
1594576335.2,286046995.6,N
1594576355.9,286046995.6,N
1594576375.7,286046996.7,N
1594576395.6,286046996.9,N
1594576415.4,286046996.6,N
1594576435.2,286046999.3,N
1594576455.1,286046997.8,N
1594576456.0,286046997.8,N
1594576475.8,286046999.0,N
1594576495.7,286046996.9,N
1594576515.5,286046999.0,N
1594576535.3,286046996.9,N
1594576555.2,286046997.2,N
1594576575.0,286046996.7,N
1594576575.9,286046996.7,N
1594576595.8,286046996.5,N
1594576615.6,286046999.6,N
1594576635.4,286046998.4,N
1594576655.3,286046996.9,N
1594576675.1,286046995.8,N
1594576695.8,286046993.3,Y
1594576715.7,286047000.5,P
1594576735.5,286046998.7,N
1594576755.4,286046996.9,N
1594576775.2,286046999.6,N
1594576795.0,286047000.9,N
1594576795.9,286047000.9,N
